Flag for U.S.A. Weather past 2 weeks in Salina, Kansas, U.S.A.

Now
62 °F

Sunny.


Feels Like: 62 °F
Forecast: 56 / 72 °F
Wind: 5 mph from Southeast

Location: Salina Municipal Airport

Current Time: Apr 18, 2015 at 10:12:10 AM

Latest Report: Apr 18, 2015 at 9:53 AM


Visibility: 10 mi

Pressure: 29.88 "Hg

Humidity: 86%

Dew point: 58 °F

Location of SalinaLocation

Historic Weather in Salina — Graph

°F

Salina temperature yesterday

Maximum temperature yesterday: 75 °F (at 5:53 PM)
Minimum temperature yesterday: 55 °F (at 3:53 AM)
Average temperature yesterday: 64 °F

Past Weeks' High & Low Weather Summary

 TemperatureHumidityPressure
High83 °F (Apr 6, 4:53 PM)96% (Apr 7, 5:53 AM)30.41 "Hg (Apr 7, 5:53 AM)
Low26 °F (Apr 4, 3:53 AM)16% (Apr 4, 3:53 PM)29.49 "Hg (Apr 9, 2:53 AM)
Average58 °F62%29.97 "Hg
* Reported Apr 3 8:53 AM — Apr 18 8:53 AM, Salina, Weather by CustomWeather, © 2015

Note: Actual official high and low records may vary slightly from our data, if they occured in-between our weather recording intervals... More about our weather records

Advertising

Salina weather history for previous 24 hours

 ConditionsComfort  
Time TempWeatherWind HumidityBarometerVisibility
8:53 AM
Sat, Apr 18
61 °FPassing clouds.7 mph87%29.88 "Hg10 mi
7:53 AM59 °FPassing clouds.No wind90%29.88 "Hg10 mi
6:53 AM60 °FPassing clouds.7 mph93%29.88 "Hg10 mi
5:53 AM61 °FMostly cloudy.5 mph90%29.88 "Hg10 mi
5:00 AM61 °FLight rain. Overcast.5 mph90%29.92 "Hg7 mi
3:53 AM60 °FOvercast.6 mph90%29.88 "Hg10 mi
2:53 AM60 °FPassing clouds.7 mph86%29.89 "Hg10 mi
1:53 AM63 °FOvercast.6 mph81%29.91 "Hg10 mi
12:53 AM62 °FClear.6 mph83%29.93 "Hg10 mi
11:53 PM
Fri, Apr 17
62 °FClear.6 mph86%29.93 "Hg10 mi
10:53 PM64 °FClear.8 mph81%29.94 "Hg10 mi
9:53 PM66 °FClear.6 mph75%29.93 "Hg10 mi
8:53 PM67 °FPassing clouds.6 mph71%29.93 "Hg10 mi
7:53 PM70 °FPassing clouds.8 mph64%29.91 "Hg10 mi
6:53 PM73 °FSunny.8 mph55%29.91 "Hg10 mi
5:53 PM75 °FSunny.8 mph52%29.92 "Hg10 mi
4:53 PM74 °FSunny.8 mph53%29.92 "Hg10 mi
3:53 PM72 °FMostly cloudy.No wind57%29.93 "Hg10 mi
2:53 PM73 °FBroken clouds.6 mph59%29.96 "Hg10 mi
1:53 PM71 °FScattered clouds.6 mph66%29.98 "Hg10 mi
12:53 PM67 °FSunny.5 mph73%30.00 "Hg10 mi
11:53 AM64 °FSunny.6 mph81%30.00 "Hg10 mi
10:53 AM60 °FPassing clouds.17 mph86%29.97 "Hg10 mi
Weather by CustomWeather, © 2015

See weather overviewHow to use our weather pages